Find Starlink 4430

NORAD ID: 53485 Int'l Des: 2022-099 Owner: SPXS Country: US Constellation: starlink operational
LEOCIRCULARRETROGRADESSO

实时位置

正在加载3D地球...

关于 Starlink 4430

正在加载描述...

即将过境

Passes for default location (London). Set your location on the main map for personalized predictions.

高度历史

Loading altitude history...

两行轨道根数

1 53485U 22099W 26130.07284686 .00000520 00000-0 40137-4 0 9996
2 53485 97.5115 250.5014 0000717 173.7190 186.4046 15.05646757205210
Epoch: May 10, 2026 • Age: 13 hours

当前状态

高度 552.1 km
速度 7.59 km/s
星下点 24.32°N, 21.94°W
发射日期 Aug 12, 2022
运行时间 3.7 years
类型 internet

技术详情

分类 Payload
质量 300.00 kg
干质量 275.00 kg
总质量 300.00 kg
长度 0.20 m
直径 2.80 m
跨度 9.00 m
形状 Box + pan
制造商 SPXS
平台类型 Starlink
阶段状态 In Orbit
所有者/国家 SPXS/US

Most Searched